Regional Weather Roundup
Issued by NWS Upton, NY

Current Version | Previous Version | Graphics & Text | Print | Product List | Glossary Off
Versions: 1 2 3 4 5 6 7 8 9 10 11 12 13 14 15 16 17 18 19 20 21 22 23 24 25 26 27 28 29 30 31 32 33 34 35 36 37 38 39 40 41 42 43 44 45 46 47 48 49 50

000
ASUS41 KOKX 270007
RWROKX

REGIONAL WEATHER ROUNDUP
NATIONAL WEATHER SERVICE NEW YORK NY
800 PM EDT THU MAR 26 2015

NOTE: "FAIR" INDICATES FEW OR NO CLOUDS BELOW 12,000 FEET WITH NO
SIGNIFICANT WEATHER AND/OR OBSTRUCTIONS TO VISIBILITY.

NYZ071-072-176-178-NJZ106-104-270100-
NEW YORK CITY METRO AREA


CITY           SKY/WX    TMP DP  RH WIND       PRES   REMARKS
CENTRAL PARK   CLOUDY    61  57  87 VRB3      29.62R
LAGUARDIA APRT CLOUDY    57  53  86 S12       29.60R
KENNEDY INTL   FOG       51  48  89 S18       29.63R VSB 1/4
NEWARK/LIBERTY CLOUDY    63  58  83 S9        29.60R
BRNX BOT. GARD   N/A     54  54 100 S3        29.62R
TETERBORO      CLOUDY    57  51  80 CALM      29.59R FOG
$$

NYZ177-179-078>081-270100-
LONG ISLAND NEW YORK

CITY           SKY/WX    TMP DP  RH WIND       PRES   REMARKS
FARMINGDALE    CLOUDY    51  50  96 SW22G29   29.64R FOG
ISLIP          FOG       54  52  93 S16G28    29.62F VSB 1
SHIRLEY        CLOUDY    50  49  96 S14G24    29.65F FOG
WESTHAMPTON    LGT RAIN  49  47  93 SW7       29.66F FOG
MONTAUK POINT    N/A     50  47  89 S15G23    29.66F
$$

NYZ052-065-067-270100-
HUDSON VALLEY

CITY           SKY/WX    TMP DP  RH WIND       PRES   REMARKS
WHITE PLAINS   FOG       54  53  97 VRB5      29.61R VSB 1/2
NEWBURGH       LGT RAIN  46  46 100 NE12G18   29.64S FOG
MONTGOMERY     LGT RAIN  43  42  97 NE17      29.66R FOG
POUGHKEEPSIE   LGT RAIN  43  40  89 N12       29.68R FOG
ALBANY         LGT RAIN  40  37  89 NW6       29.74R FOG
$$

NJZ001-105-106-008-010-013-015-019>022-104-270100-
NEW JERSEY

CITY           SKY/WX    TMP DP  RH WIND       PRES   REMARKS
NEWARK/LIBERTY CLOUDY    63  58  83 S9        29.60R
TETERBORO      CLOUDY    57  51  80 CALM      29.59R FOG
CALDWELL       CLOUDY    52  49  89 CALM      29.60R FOG
MORRISTOWN     CLOUDY    52  52 100 CALM      29.60R FOG
SOMERVILLE     MOCLDY    52  50  93 NW3       29.57F FOG
SUSSEX         RAIN      47  44  90 E6        29.65S FOG
ANDOVER          N/A     47  47 100 VRB5      29.64R
TRENTON        CLOUDY    63  57  81 S12       29.58S
MILLVILLE      PTCLDY    58  57  97 VRB5      29.60F
ATLANTIC CITY  FOG       55  54  96 S17G26    29.61F VSB 1/4
WRIGHTSTOWN    PTCLDY    61  60  99 SW12G23   29.57F
TOMS RIVER     CLOUDY    61  57  88 SW13G18   29.61F
BELMAR         CLOUDY    61  54  77 S13G22    29.61F
$$

PAZ047>061-062-071-270100-
EASTERN PENNSYLVANIA

CITY           SKY/WX    TMP DP  RH WIND       PRES   REMARKS
PHILADELPHIA   MOCLDY    61  57  87 S9        29.59F
ALLENTOWN      RAIN      50  46  87 NW10      29.63R FOG
SCRANTON       RAIN      42  38  85 N9        29.73R
$$

CTZ002-004>006-009-010-012-RIZ004-006-007-MAZ004-011-015-270100-
SOUTHERN NEW ENGLAND
 IN CT

CITY           SKY/WX    TMP DP  RH WIND       PRES   REMARKS
BRADLEY INTL   LGT RAIN  45  43  93 N10       29.65R FOG
HARTFORD       CLOUDY    47  46  97 N9        29.63R FOG
DANBURY        LGT RAIN  49  47  93 N3        29.63R VSB 1
WTRBRY/OXFORD  FOG       54  48  82 SW6       29.64S VSB 1/4
BRIDGEPORT     FOG       47  47 100 W7        29.62S VSB 3/4
MERIDEN        CLOUDY    53  52  96 S9        29.63R FOG
NEW HAVEN      FOG       48  48 100 SW5       29.63S VSB 1
CHESTER        FOG       54  54 100 SW14G25   29.64F VSB 1/4
GROTON         CLOUDY    51  51 100 SW14      29.64F FOG
WILLIMANTIC    CLOUDY    55  54  96 S12G24    29.63R

 IN RI

CITY           SKY/WX    TMP DP  RH WIND       PRES   REMARKS
PROVIDENCE     RAIN      57  54  89 SW18G30   29.64F FOG
BLOCK ISLAND   CLOUDY    48  45  87 S21G30    29.65F
WESTERLY       LGT RAIN  48  48 100 SW12      29.67S FOG

 IN MA

CITY           SKY/WX    TMP DP  RH WIND       PRES   REMARKS
BOSTON         RAIN      48  47  96 N6        29.64F FOG
WORCESTER      LGT RAIN  45  44  97 W7        29.63R VSB 1/4
WESTFIELD      LGT RAIN  42  40  92 N7        29.66R FOG
PROVINCETOWN   CLOUDY    50  45  81 SW16      29.67R
NANTUCKET      FOG       45  44  97 S21       29.71F VSB 3/4
$$

ANZ330-335-338-340-345-350-353-355-270100-
COASTAL MARINE OBSERVATIONS


STATION/POSITION TIME  SKY/WX   TEMP    WIND        PRES    VSBY  WAVE
                                AIR SEA DIR/SP/G                  HT/PER
                 (UTC)          (F)     (DEG/KT/KT) (MB)    (MI)  (FT/S)
NY HARB ENTRANCE 2350            45 38  200/ 17/ 21 1002.7          6/ 8
4S FIRE IS       2303               36                N/A           7/ 8
20S FIRE ISLAND  2250               38              1005.0          7/ 9
23SW MTP         2350                                 N/A           8/ 8
HUDSON CANYON    NOT AVBL
EXECUTION ROCKS  NOT AVBL
WESTERN LI SOUND NOT AVBL
CENTRAL LI SOUND NOT AVBL
EASTERN LI SOUND NOT AVBL
ROBBINS REEF     2300            59     170/ 13/ 14 1000.8
$$


>>>>>>>>>>>>>>>>>>>>>>>>>>>> KEY <<<<<<<<<<<<<<<<<<<<<<<<<<<
>                                                          <
>     SKY/WX - SKY CONDITION/PRESENT WEATHER               <
>     TMP    - TEMPERATURE IN FAHRENHEIT                   <
>     DP     - DEWPOINT IN FAHRENHEIT                      <
>     RH     - RELATIVE HUMIDITY IN PERCENT                <
>     WIND   - DIRECTION AND SPEED IN MPH                  <
>     PRES   - MEAN SEA LEVEL PRESSURE IN INCHES OF HG     <
>     WCI    - WIND CHILL INDEX                            <
>     VSB    - VISIBILITY IN MILES                         <
>     HX     - HEAT INDEX                                  <
>     TC     - TEMPERATURE IN CELSIUS                      <
>     VRB    - VARIABLE WIND DIRECTION                     <
>                                                          <
>>>>>>>>>>>>>>>>>>>>>>>>>>>> KEY <<<<<<<<<<<<<<<<<<<<<<<<<<<




USA.gov is the U.S. government's official web portal to all federal, state and local government web resources and services.